TimeEDT,TemperatureF,Dew PointF,Humidity,Sea Level PressureIn,VisibilityMPH,Wind Direction,Wind SpeedMPH,Gust SpeedMPH,PrecipitationIn,Events,Conditions,WindDirDegrees,DateUTC
12:56 AM,42.1,36.0,79,30.48,10.0,Calm,Calm,-,N/A,,Clear,0,2013-05-02 04:56:00
1:56 AM,41.0,37.0,86,30.46,10.0,Calm,Calm,-,N/A,,Clear,0,2013-05-02 05:56:00
2:56 AM,41.0,37.0,86,30.46,10.0,Calm,Calm,-,N/A,,Clear,0,2013-05-02 06:56:00
3:56 AM,41.0,37.0,86,30.46,10.0,Calm,Calm,-,N/A,,Clear,0,2013-05-02 07:56:00
4:56 AM,37.9,36.0,93,30.46,10.0,Calm,Calm,-,N/A,,Clear,0,2013-05-02 08:56:00
5:56 AM,37.0,36.0,96,30.46,10.0,Calm,Calm,-,N/A,,Clear,0,2013-05-02 09:56:00
6:56 AM,44.1,42.1,93,30.47,10.0,Calm,Calm,-,N/A,,Clear,0,2013-05-02 10:56:00
7:56 AM,53.1,45.0,74,30.47,10.0,Calm,Calm,-,N/A,,Clear,0,2013-05-02 11:56:00
8:56 AM,59.0,44.1,58,30.47,10.0,Calm,Calm,-,N/A,,Clear,0,2013-05-02 12:56:00
9:56 AM,64.0,43.0,46,30.46,10.0,Calm,Calm,-,N/A,,Clear,0,2013-05-02 13:56:00
10:56 AM,69.1,44.1,40,30.45,10.0,Calm,Calm,-,N/A,,Clear,0,2013-05-02 14:56:00
11:56 AM,71.1,39.0,31,30.43,10.0,Variable,4.6,-,N/A,,Clear,0,2013-05-02 15:56:00
12:56 PM,73.9,39.0,28,30.40,10.0,Variable,3.5,-,N/A,,Clear,0,2013-05-02 16:56:00
1:56 PM,73.9,37.9,27,30.39,10.0,Calm,Calm,-,N/A,,Partly Cloudy,0,2013-05-02 17:56:00
2:56 PM,73.0,39.0,29,30.39,10.0,East,17.3,25.3,N/A,,Clear,90,2013-05-02 18:56:00
3:56 PM,69.1,37.0,31,30.41,10.0,East,21.9,26.5,N/A,,Clear,100,2013-05-02 19:56:00
4:56 PM,61.0,44.1,54,30.43,10.0,East,16.1,23.0,N/A,,Mostly Cloudy,80,2013-05-02 20:56:00
5:56 PM,55.9,43.0,62,30.45,10.0,East,11.5,-,N/A,,Overcast,90,2013-05-02 21:56:00
6:56 PM,52.0,41.0,66,30.48,10.0,NE,11.5,-,N/A,,Mostly Cloudy,40,2013-05-02 22:56:00
7:56 PM,50.0,-8.0,9,30.51,10.0,ENE,8.1,-,N/A,,Overcast,70,2013-05-02 23:56:00
8:56 PM,50.0,-14.1,7,30.52,10.0,ESE,9.2,-,0.00,Rain,Light Rain,120,2013-05-03 00:56:00
9:56 PM,48.9,-11.0,8,30.52,10.0,NE,5.8,-,0.00,,Overcast,50,2013-05-03 01:56:00
10:56 PM,46.0,-9999,N/A,30.52,10.0,NNE,3.5,-,N/A,,Clear,30,2013-05-03 02:56:00
11:56 PM,43.0,-9999,N/A,30.53,10.0,North,4.6,-,N/A,,Clear,10,2013-05-03 03:56:00